Location: Brompton
(51.4000°N, 0.5333°E)
Time: 02:33:51
(UTC+00:00)

Cosmos 2341 Rocket - Pass Details

Date: 11 May 2021
Orbit: 969 x 1004 km, 82.9° (Epoch: 13 June)

Event Time Altitude Azimuth Distance (km) Brightness Sun altitude
Rises 21:51:24 0° 351° (N) 3,743 8.4 -15.5°
Reaches altitude 10° 21:54:00 10° 356° (N) 2,790 7.4 -15.7°
Maximum altitude 22:00:19 57° 75° (ENE) 1,170 4.3 -16.1°
Enters shadow 22:04:08 24° 145° (SE) 1,925 4.9 -16.4°
